,,PA_Meas_PMT16A,,PR_Meas_QMR101_102,,RH_Meas_QMH101,,SR_Meas_QMS101,,TA_Meas_QMH101,,GenWind,,GenWind,
time,status,PA,status,PR,status,RH,status,SR,status,TA,status,DirAvg,status,SpdAvg,
2014-04-08, 00:00:04,VALID,921.108,VALID,0,VALID,95.8111,VALID,0,VALID,19.7433,VALID,329,VALID,0.360547,
2014-04-08, 00:01:04,VALID,921.154,VALID,0,VALID,95.7882,VALID,0,VALID,19.7433,VALID,329,VALID,0.109375,
2014-04-08, 00:02:04,VALID,921.146,VALID,0,VALID,95.7806,VALID,0,VALID,19.7223,VALID,329,VALID,0,
2014-04-08, 00:03:04,VALID,921.184,VALID,0,VALID,95.7654,VALID,0,VALID,19.7238,VALID,329,VALID,0,
2014-04-08, 00:04:04,VALID,921.187,VALID,0,VALID,95.7577,VALID,0,VALID,19.7223,VALID,329,VALID,0.564844,
2014-04-08, 00:05:04,VALID,921.181,VALID,0,VALID,95.7577,VALID,0,VALID,19.7028,VALID,329,VALID,0.624609,
2014-04-08, 00:06:04,VALID,921.205,VALID,0,VALID,95.7654,VALID,0,VALID,19.7223,VALID,330,VALID,0.825391,
2014-04-08, 00:07:04,VALID,921.219,VALID,0,VALID,95.7958,VALID,0,VALID,19.7628,VALID,330,VALID,0.571875,
2014-04-08, 00:08:04,VALID,921.206,VALID,0,VALID,95.8035,VALID,0,VALID,19.7613,VALID,330,VALID,0.841016,
2014-04-08, 00:09:04,VALID,921.162,VALID,0,VALID,95.7958,VALID,0,VALID,19.7433,VALID,16,VALID,1.15234,
2014-04-08, 00:10:04,VALID,921.173,VALID,0,VALID,95.7882,VALID,0,VALID,19.6833,VALID,18,VALID,0.796094,
2014-04-08, 00:11:04,VALID,921.165,VALID,0,VALID,95.7806,VALID,0,VALID,19.6833,VALID,18,VALID,0.736328,
2014-04-08, 00:12:04,VALID,921.152,VALID,0,VALID,95.7882,VALID,0,VALID,19.6443,VALID,18,VALID,0.811719,
2014-04-08, 00:13:04,VALID,921.153,VALID,0,VALID,95.7806,VALID,0,VALID,19.6638,VALID,18,VALID,0.519922,
2014-04-08, 00:14:04,VALID,921.135,VALID,0,VALID,95.834,VALID,0,VALID,19.7433,VALID,18,VALID,0.564844,
2014-04-08, 00:15:04,VALID,921.147,VALID,0,VALID,95.8416,VALID,0,VALID,19.7238,VALID,18,VALID,0.558984,
2014-04-08, 00:16:04,VALID,921.163,VALID,0,VALID,95.8645,VALID,0,VALID,19.7238,VALID,18,VALID,0.612891,
2014-04-08, 00:17:04,VALID,921.118,VALID,0,VALID,95.8873,VALID,0,VALID,19.7433,VALID,1,VALID,0.407031,
2014-04-08, 00:18:04,VALID,921.132,VALID,0,VALID,95.8645,VALID,0,VALID,19.7223,VALID,1,VALID,0.0988281,
2014-04-08, 00:19:04,VALID,921.11,VALID,0,VALID,95.8797,VALID,0,VALID,19.8018,VALID,1,VALID,0.328125,
2014-04-08, 00:20:04,VALID,921.101,VALID,0,VALID,95.895,VALID,0,VALID,19.7808,VALID,1,VALID,0.436719,
2014-04-08, 00:21:04,VALID,921.082,VALID,0,VALID,95.9102,VALID,0,VALID,19.8603,VALID,1,VALID,0.119922,
2014-04-08, 00:22:04,VALID,921.102,VALID,0,VALID,95.9026,VALID,0,VALID,19.8408,VALID,1,VALID,0,
2014-04-08, 00:23:04,VALID,921.07,VALID,0,VALID,95.9407,VALID,0,VALID,19.8018,VALID,1,VALID,0.0652344,
2014-04-08, 00:24:04,VALID,921.071,VALID,0,VALID,95.9331,VALID,0,VALID,19.8408,VALID,1,VALID,0,
2014-04-08, 00:25:04,VALID,921.032,VALID,0,VALID,95.9407,VALID,0,VALID,19.8603,VALID,1,VALID,0.000390625,
2014-04-08, 00:26:04,VALID,921.022,VALID,0,VALID,95.9483,VALID,0,VALID,19.8408,VALID,1,VALID,0.376563,
2014-04-08, 00:27:04,VALID,921.015,VALID,0,VALID,95.9712,VALID,0,VALID,19.8213,VALID,1,VALID,0.426953,
2014-04-08, 00:28:04,VALID,920.981,VALID,0,VALID,95.9483,VALID,0,VALID,19.8003,VALID,1,VALID,0.486328,
2014-04-08, 00:29:04,VALID,920.966,VALID,0,VALID,95.9407,VALID,0,VALID,19.8018,VALID,38,VALID,1.0293,
2014-04-08, 00:30:04,VALID,920.961,VALID,0,VALID,95.9712,VALID,0,VALID,19.8588,VALID,38,VALID,0.285156,
2014-04-08, 00:31:04,VALID,920.949,VALID,0,VALID,95.9788,VALID,0,VALID,19.8408,VALID,38,VALID,0,
2014-04-08, 00:32:04,VALID,920.925,VALID,0,VALID,95.9864,VALID,0,VALID,19.8603,VALID,38,VALID,0.167187,
2014-04-08, 00:33:04,VALID,920.885,VALID,0,VALID,95.9941,VALID,0,VALID,19.8198,VALID,38,VALID,0.214062,
2014-04-08, 00:34:04,VALID,920.872,VALID,0,VALID,95.9864,VALID,0,VALID,19.8603,VALID,38,VALID,0.28125,
2014-04-08, 00:35:04,VALID,920.839,VALID,0,VALID,95.9864,VALID,0,VALID,19.8198,VALID,38,VALID,0.553516,
2014-04-08, 00:36:04,VALID,920.795,VALID,0,VALID,95.9864,VALID,0,VALID,19.8213,VALID,38,VALID,0.296484,
2014-04-08, 00:37:04,VALID,920.76,VALID,0,VALID,95.9941,VALID,0,VALID,19.7808,VALID,38,VALID,0.430469,
2014-04-08, 00:38:04,VALID,920.728,VALID,0,VALID,95.9788,VALID,0,VALID,19.8018,VALID,38,VALID,0.630469,
2014-04-08, 00:39:04,VALID,920.699,VALID,0,VALID,95.9864,VALID,0,VALID,19.8018,VALID,38,VALID,0.549609,
2014-04-08, 00:40:04,VALID,920.654,VALID,0,VALID,96.0017,VALID,0,VALID,19.8018,VALID,38,VALID,0.485938,
2014-04-08, 00:41:04,VALID,920.624,VALID,0,VALID,96.0017,VALID,0,VALID,19.7823,VALID,38,VALID,0.789453,
2014-04-08, 00:42:04,VALID,920.571,VALID,0,VALID,96.0093,VALID,0,VALID,19.7613,VALID,38,VALID,0.470313,
2014-04-08, 00:43:04,VALID,920.551,VALID,0,VALID,96.0017,VALID,0,VALID,19.7823,VALID,38,VALID,0.300781,
2014-04-08, 00:44:04,VALID,920.482,VALID,0,VALID,96.0093,VALID,0,VALID,19.8018,VALID,38,VALID,0.499609,
2014-04-08, 00:45:04,VALID,920.448,VALID,0,VALID,96.0169,VALID,0,VALID,19.8018,VALID,38,VALID,0.363672,
2014-04-08, 00:46:04,VALID,920.419,VALID,0,VALID,96.0245,VALID,0,VALID,19.8003,VALID,38,VALID,0.537891,
2014-04-08, 00:47:04,VALID,920.347,VALID,0,VALID,96.0398,VALID,0,VALID,19.8018,VALID,38,VALID,0.0488281,
2014-04-08, 00:48:04,VALID,920.309,VALID,0,VALID,96.0474,VALID,0,VALID,19.8213,VALID,38,VALID,0.028125,
2014-04-08, 00:49:04,VALID,920.295,VALID,0,VALID,96.0474,VALID,0,VALID,19.8408,VALID,38,VALID,0,
2014-04-08, 00:50:04,VALID,920.255,VALID,0,VALID,96.055,VALID,0,VALID,19.8213,VALID,6,VALID,0.112109,
2014-04-08, 00:51:04,VALID,920.22,VALID,0,VALID,96.055,VALID,0,VALID,19.8408,VALID,6,VALID,0.177344,
2014-04-08, 00:52:04,VALID,920.232,VALID,0,VALID,96.055,VALID,0,VALID,19.8408,VALID,6,VALID,0.413281,
2014-04-08, 00:53:04,VALID,920.19,VALID,0,VALID,96.0627,VALID,0,VALID,19.8408,VALID,6,VALID,0.652734,
2014-04-08, 00:54:04,VALID,920.169,VALID,0,VALID,96.0703,VALID,0,VALID,19.8198,VALID,11,VALID,0.626172,
2014-04-08, 00:55:04,VALID,920.174,VALID,0,VALID,96.0703,VALID,0,VALID,19.8408,VALID,11,VALID,0.514063,
2014-04-08, 00:56:04,VALID,920.155,VALID,0,VALID,96.0703,VALID,0,VALID,19.8213,VALID,11,VALID,0.526172,
2014-04-08, 00:57:04,VALID,920.158,VALID,0,VALID,96.0703,VALID,0,VALID,19.8003,VALID,11,VALID,0.335156,
2014-04-08, 00:58:04,VALID,920.158,VALID,0,VALID,96.0779,VALID,0,VALID,19.8018,VALID,11,VALID,0.0257812,
2014-04-08, 00:59:04,VALID,920.123,VALID,0,VALID,96.0627,VALID,0,VALID,19.8213,VALID,11,VALID,0.440625,
2014-04-08, 01:00:04,VALID,920.103,VALID,0,VALID,96.1008,VALID,0,VALID,19.8213,VALID,38,VALID,0.117969,
2014-04-08, 01:01:04,VALID,920.097,VALID,0,VALID,96.0932,VALID,0,VALID,19.8018,VALID,112,VALID,1.01641,
2014-04-08, 01:02:04,VALID,920.134,VALID,0,VALID,96.1084,VALID,0,VALID,19.8003,VALID,75,VALID,0.695703,
2014-04-08, 01:03:04,VALID,920.126,VALID,0,VALID,96.1084,VALID,0,VALID,19.8018,VALID,99,VALID,1.34687,
2014-04-08, 01:04:04,VALID,920.151,VALID,0,VALID,96.116,VALID,0,VALID,19.7613,VALID,117,VALID,1.15195,
2014-04-08, 01:05:04,VALID,920.16,VALID,0,VALID,96.116,VALID,0,VALID,19.7433,VALID,96,VALID,1.19922,
2014-04-08, 01:06:04,VALID,920.147,VALID,0,VALID,96.1008,VALID,0,VALID,19.7238,VALID,100,VALID,1.12656,
2014-04-08, 01:07:04,VALID,920.142,VALID,0,VALID,96.116,VALID,0,VALID,19.7028,VALID,149,VALID,0.915625,
2014-04-08, 01:08:04,VALID,920.154,VALID,0,VALID,96.1236,VALID,0,VALID,19.7238,VALID,147,VALID,0.784766,
2014-04-08, 01:09:04,VALID,920.136,VALID,0,VALID,96.1389,VALID,0,VALID,19.7028,VALID,109,VALID,0.566406,
2014-04-08, 01:10:04,VALID,920.12,VALID,0,VALID,96.1465,VALID,0,VALID,19.7238,VALID,124,VALID,0.885156,
2014-04-08, 01:11:04,VALID,920.116,VALID,0,VALID,96.1465,VALID,0,VALID,19.7238,VALID,125,VALID,1.32695,
2014-04-08, 01:12:04,VALID,920.074,VALID,0,VALID,96.1465,VALID,0,VALID,19.7043,VALID,130,VALID,0.531641,
2014-04-08, 01:13:04,VALID,920.047,VALID,0,VALID,96.1541,VALID,0,VALID,19.7238,VALID,146,VALID,0.893359,
2014-04-08, 01:14:04,VALID,920.044,VALID,0,VALID,96.1618,VALID,0,VALID,19.7043,VALID,125,VALID,1.44883,
2014-04-08, 01:15:05,VALID,920.014,VALID,0,VALID,96.1846,VALID,0,VALID,19.7043,VALID,142,VALID,0.872266,
2014-04-08, 01:16:05,VALID,920.017,VALID,0,VALID,96.1846,VALID,0,VALID,19.7028,VALID,158,VALID,0.926562,
2014-04-08, 01:17:05,VALID,920.038,VALID,0,VALID,96.177,VALID,0,VALID,19.7028,VALID,166,VALID,1.27813,
2014-04-08, 01:18:05,VALID,920.064,VALID,0,VALID,96.1923,VALID,0,VALID,19.7028,VALID,147,VALID,1.33945,
2014-04-08, 01:19:05,VALID,920.042,VALID,0,VALID,96.2075,VALID,0,VALID,19.6833,VALID,133,VALID,1.28359,
2014-04-08, 01:20:05,VALID,920.058,VALID,0,VALID,96.1999,VALID,0,VALID,19.6638,VALID,141,VALID,1.81406,
2014-04-08, 01:21:05,VALID,920.063,VALID,0,VALID,96.1999,VALID,0,VALID,19.6638,VALID,138,VALID,1.37852,
2014-04-08, 01:22:05,VALID,920.067,VALID,0,VALID,96.1999,VALID,0,VALID,19.6848,VALID,148,VALID,1.35156,
2014-04-08, 01:23:05,VALID,920.058,VALID,0,VALID,96.2228,VALID,0,VALID,19.6833,VALID,148,VALID,1.13906,
2014-04-08, 01:24:05,VALID,920.052,VALID,0,VALID,96.2304,VALID,0,VALID,19.7043,VALID,145,VALID,1.16016,
2014-04-08, 01:25:05,VALID,920.033,VALID,0,VALID,96.238,VALID,0,VALID,19.7043,VALID,132,VALID,1.40508,
2014-04-08, 01:26:05,VALID,920.025,VALID,0,VALID,96.2456,VALID,0,VALID,19.6848,VALID,132,VALID,1.51094,
2014-04-08, 01:27:05,VALID,920.014,VALID,0,VALID,96.2151,VALID,0,VALID,19.6833,VALID,137,VALID,0.908984,
2014-04-08, 01:28:05,VALID,919.944,VALID,0,VALID,96.238,VALID,0,VALID,19.6833,VALID,114,VALID,0.748438,
2014-04-08, 01:29:05,VALID,919.917,VALID,0,VALID,96.2533,VALID,0.107441,VALID,19.7223,VALID,129,VALID,1.38398,
2014-04-08, 01:30:05,VALID,919.872,VALID,0,VALID,96.2456,VALID,0.107441,VALID,19.7028,VALID,105,VALID,1.20195,
2014-04-08, 01:31:05,VALID,919.816,VALID,0,VALID,96.2533,VALID,0.107441,VALID,19.7013,VALID,115,VALID,0.926562,
2014-04-08, 01:32:05,VALID,919.78,VALID,0,VALID,96.2456,VALID,0.107441,VALID,19.7223,VALID,128,VALID,0.760938,
2014-04-08, 01:33:05,VALID,919.78,VALID,0,VALID,96.2456,VALID,0,VALID,19.7028,VALID,127,VALID,1.25703,
2014-04-08, 01:34:05,VALID,919.727,VALID,0,VALID,96.2456,VALID,0.107441,VALID,19.7013,VALID,129,VALID,0.888672,
2014-04-08, 01:35:05,VALID,919.708,VALID,0,VALID,96.2609,VALID,0,VALID,19.6818,VALID,122,VALID,0.907031,
2014-04-08, 01:36:05,VALID,919.658,VALID,0,VALID,96.2533,VALID,0.107441,VALID,19.6623,VALID,125,VALID,1.23516,
2014-04-08, 01:37:05,VALID,919.651,VALID,0,VALID,96.2533,VALID,0,VALID,19.6833,VALID,128,VALID,1.26211,
2014-04-08, 01:38:05,VALID,919.58,VALID,0,VALID,96.238,VALID,0.107441,VALID,19.7028,VALID,114,VALID,1.1293,
2014-04-08, 01:39:05,VALID,919.54,VALID,0,VALID,96.2609,VALID,0.107441,VALID,19.7028,VALID,104,VALID,0.852734,
2014-04-08, 01:40:05,VALID,919.535,VALID,0,VALID,96.2228,VALID,0.107441,VALID,19.7028,VALID,115,VALID,1.41445,
2014-04-08, 01:41:05,VALID,919.474,VALID,0,VALID,96.2304,VALID,0.107441,VALID,19.6818,VALID,110,VALID,1.06719,
2014-04-08, 01:42:05,VALID,919.474,VALID,0,VALID,96.2456,VALID,0.107441,VALID,19.6833,VALID,115,VALID,0.599219,
2014-04-08, 01:43:05,VALID,919.435,VALID,0,VALID,96.2456,VALID,0,VALID,19.6428,VALID,131,VALID,0.863281,
2014-04-08, 01:44:05,VALID,919.445,VALID,0,VALID,96.2304,VALID,0,VALID,19.6443,VALID,126,VALID,0.866016,
2014-04-08, 01:45:05,VALID,919.394,VALID,0,VALID,96.2151,VALID,0,VALID,19.6653,VALID,132,VALID,0.376563,
2014-04-08, 01:46:05,VALID,919.387,VALID,0,VALID,96.2304,VALID,0,VALID,19.6653,VALID,132,VALID,0.231641,
2014-04-08, 01:47:05,VALID,919.382,VALID,0,VALID,96.2228,VALID,0,VALID,19.6458,VALID,132,VALID,0.388281,
2014-04-08, 01:48:05,VALID,919.316,VALID,0,VALID,96.2228,VALID,0,VALID,19.6653,VALID,134,VALID,0.858984,
2014-04-08, 01:49:05,VALID,919.305,VALID,0,VALID,96.238,VALID,0,VALID,19.6263,VALID,129,VALID,0.955469,
2014-04-08, 01:50:05,VALID,919.275,VALID,0,VALID,96.2304,VALID,0,VALID,19.6248,VALID,125,VALID,1.17461,
2014-04-08, 01:51:05,VALID,919.309,VALID,0,VALID,96.2304,VALID,0,VALID,19.6068,VALID,126,VALID,0.473828,
2014-04-08, 01:52:05,VALID,919.281,VALID,0,VALID,96.2151,VALID,0,VALID,19.6263,VALID,132,VALID,0.444141,
2014-04-08, 01:53:05,VALID,919.26,VALID,0,VALID,96.2304,VALID,0,VALID,19.6068,VALID,150,VALID,0.618359,
2014-04-08, 01:54:05,VALID,919.249,VALID,0,VALID,96.238,VALID,0,VALID,19.6248,VALID,150,VALID,0.475391,
2014-04-08, 01:55:05,VALID,919.245,VALID,0,VALID,96.2304,VALID,0,VALID,19.6263,VALID,150,VALID,0.214844,
2014-04-08, 01:56:05,VALID,919.242,VALID,0,VALID,96.1999,VALID,0,VALID,19.6458,VALID,150,VALID,0.442578,
2014-04-08, 01:57:05,VALID,919.235,VALID,0,VALID,96.238,VALID,0,VALID,19.6458,VALID,150,VALID,0.347656,
2014-04-08, 01:58:05,VALID,919.208,VALID,0,VALID,96.2456,VALID,0,VALID,19.6458,VALID,150,VALID,0.362109,
2014-04-08, 01:59:05,VALID,919.177,VALID,0,VALID,96.238,VALID,0,VALID,19.6053,VALID,150,VALID,0.326172,
2014-04-08, 02:00:05,VALID,919.176,VALID,0,VALID,96.2228,VALID,0,VALID,19.6068,VALID,150,VALID,0.392188,
2014-04-08, 02:01:05,VALID,919.2,VALID,0,VALID,96.2456,VALID,0,VALID,19.6068,VALID,150,VALID,0.274609,
2014-04-08, 02:02:05,VALID,919.182,VALID,0,VALID,96.238,VALID,0,VALID,19.6068,VALID,150,VALID,0.151953,
2014-04-08, 02:03:05,VALID,919.223,VALID,0,VALID,96.2304,VALID,0,VALID,19.6263,VALID,150,VALID,0.0269531,
2014-04-08, 02:04:05,VALID,919.241,VALID,0,VALID,96.2228,VALID,0,VALID,19.6068,VALID,150,VALID,0.434766,
2014-04-08, 02:05:05,VALID,919.232,VALID,0,VALID,96.2151,VALID,0,VALID,19.5873,VALID,150,VALID,0.719922,
2014-04-08, 02:06:05,VALID,919.242,VALID,0,VALID,96.2151,VALID,0,VALID,19.6053,VALID,150,VALID,0.769141,
2014-04-08, 02:07:05,VALID,919.257,VALID,0,VALID,96.2151,VALID,0,VALID,19.6263,VALID,150,VALID,0.680469,
2014-04-08, 02:08:05,VALID,919.258,VALID,0,VALID,96.2533,VALID,0,VALID,19.6053,VALID,150,VALID,0.493359,
2014-04-08, 02:09:05,VALID,919.224,VALID,0,VALID,96.2228,VALID,0,VALID,19.6053,VALID,150,VALID,0.237109,
2014-04-08, 02:10:05,VALID,919.196,VALID,0,VALID,96.2304,VALID,0,VALID,19.6263,VALID,150,VALID,0.217969,
2014-04-08, 02:11:05,VALID,919.187,VALID,0,VALID,96.238,VALID,0,VALID,19.6263,VALID,39,VALID,1.26563,
2014-04-08, 02:12:05,VALID,919.176,VALID,0,VALID,96.2228,VALID,0,VALID,19.6068,VALID,39,VALID,0.767578,
2014-04-08, 02:13:05,VALID,919.16,VALID,0,VALID,96.238,VALID,0,VALID,19.6068,VALID,39,VALID,0.385156,
2014-04-08, 02:14:05,VALID,919.124,VALID,0,VALID,96.238,VALID,0,VALID,19.5873,VALID,39,VALID,0.501953,
2014-04-08, 02:15:05,VALID,919.116,VALID,0,VALID,96.238,VALID,0,VALID,19.5873,VALID,39,VALID,0.473047,
2014-04-08, 02:16:05,VALID,919.124,VALID,0,VALID,96.238,VALID,0,VALID,19.5873,VALID,39,VALID,0.164844,
2014-04-08, 02:17:05,VALID,919.126,VALID,0,VALID,96.2456,VALID,0,VALID,19.5663,VALID,39,VALID,0.623828,
2014-04-08, 02:18:05,VALID,919.139,VALID,0,VALID,96.2304,VALID,0,VALID,19.6068,VALID,39,VALID,0.432031,
2014-04-08, 02:19:05,VALID,919.106,VALID,0,VALID,96.2456,VALID,0,VALID,19.5873,VALID,39,VALID,1.06797,
2014-04-08, 02:20:05,VALID,919.082,VALID,0,VALID,96.2533,VALID,0,VALID,19.5483,VALID,39,VALID,0.785937,
2014-04-08, 02:21:05,VALID,919.112,VALID,0,VALID,96.2533,VALID,0,VALID,19.5483,VALID,39,VALID,0.75,
2014-04-08, 02:22:05,VALID,919.101,VALID,0,VALID,96.2609,VALID,0,VALID,19.5288,VALID,39,VALID,0.725781,
2014-04-08, 02:23:05,VALID,919.125,VALID,0,VALID,96.2685,VALID,0,VALID,19.5288,VALID,39,VALID,0.539063,
2014-04-08, 02:24:05,VALID,919.145,VALID,0,VALID,96.2685,VALID,0,VALID,19.5303,VALID,39,VALID,0.853125,
2014-04-08, 02:25:05,VALID,919.143,VALID,0,VALID,96.2837,VALID,0,VALID,19.5288,VALID,39,VALID,0.5875,
2014-04-08, 02:26:05,VALID,919.146,VALID,0,VALID,96.2837,VALID,0,VALID,19.5093,VALID,39,VALID,0.239063,
2014-04-08, 02:27:05,VALID,919.149,VALID,0,VALID,96.2914,VALID,0,VALID,19.5288,VALID,39,VALID,0.0367187,
2014-04-08, 02:28:05,VALID,919.183,VALID,0,VALID,96.2914,VALID,0,VALID,19.5678,VALID,39,VALID,0,
2014-04-08, 02:29:05,VALID,919.168,VALID,0,VALID,96.2914,VALID,0,VALID,19.6068,VALID,39,VALID,0,
2014-04-08, 02:30:05,VALID,919.196,VALID,0,VALID,96.299,VALID,0,VALID,19.5858,VALID,39,VALID,0,
2014-04-08, 02:31:05,VALID,919.216,VALID,0,VALID,96.299,VALID,0,VALID,19.6458,VALID,39,VALID,0.1375,
2014-04-08, 02:32:05,VALID,919.229,VALID,0,VALID,96.3142,VALID,0,VALID,19.6653,VALID,39,VALID,0.248047,
2014-04-08, 02:33:05,VALID,919.206,VALID,0,VALID,96.3295,VALID,0,VALID,19.7043,VALID,39,VALID,0.0871094,
2014-04-08, 02:34:05,VALID,919.214,VALID,0,VALID,96.3219,VALID,0,VALID,19.7238,VALID,39,VALID,0,
2014-04-08, 02:35:05,VALID,919.213,VALID,0,VALID,96.3295,VALID,0,VALID,19.7043,VALID,39,VALID,0,
2014-04-08, 02:36:05,VALID,919.21,VALID,0,VALID,96.3295,VALID,0,VALID,19.6833,VALID,39,VALID,0.16875,
2014-04-08, 02:37:05,VALID,919.217,VALID,0,VALID,96.3524,VALID,0,VALID,19.7238,VALID,39,VALID,0.0515625,
2014-04-08, 02:38:05,VALID,919.21,VALID,0,VALID,96.3219,VALID,0,VALID,19.6833,VALID,39,VALID,0,
2014-04-08, 02:39:05,VALID,919.188,VALID,0,VALID,96.3447,VALID,0,VALID,19.7238,VALID,39,VALID,0.192188,
2014-04-08, 02:40:05,VALID,919.172,VALID,0,VALID,96.3524,VALID,0,VALID,19.7043,VALID,39,VALID,0.269141,
2014-04-08, 02:41:05,VALID,919.169,VALID,0,VALID,96.3524,VALID,0,VALID,19.6848,VALID,39,VALID,0.267578,
2014-04-08, 02:42:05,VALID,919.164,VALID,0,VALID,96.3371,VALID,0,VALID,19.6443,VALID,38,VALID,0.406641,
2014-04-08, 02:43:05,VALID,919.181,VALID,0,VALID,96.3447,VALID,0,VALID,19.6638,VALID,39,VALID,0.338281,
2014-04-08, 02:44:05,VALID,919.154,VALID,0,VALID,96.3371,VALID,0,VALID,19.6653,VALID,39,VALID,0,
2014-04-08, 02:45:05,VALID,919.173,VALID,0,VALID,96.36,VALID,0,VALID,19.6458,VALID,39,VALID,0,
2014-04-08, 02:46:05,VALID,919.135,VALID,0,VALID,96.3447,VALID,0,VALID,19.6653,VALID,39,VALID,0.492578,
2014-04-08, 02:47:05,VALID,919.139,VALID,0,VALID,96.3447,VALID,0,VALID,19.6653,VALID,39,VALID,0.369922,
2014-04-08, 02:48:05,VALID,919.086,VALID,0,VALID,96.3371,VALID,0,VALID,19.6848,VALID,39,VALID,0.589453,
2014-04-08, 02:49:05,VALID,919.071,VALID,0,VALID,96.36,VALID,0,VALID,19.6638,VALID,39,VALID,0.76875,
2014-04-08, 02:50:05,VALID,919.04,VALID,0,VALID,96.36,VALID,0,VALID,19.7043,VALID,39,VALID,0.564453,
2014-04-08, 02:51:05,VALID,919.021,VALID,0,VALID,96.3524,VALID,0,VALID,19.7043,VALID,39,VALID,0.184375,
2014-04-08, 02:52:05,VALID,919.029,VALID,0,VALID,96.3524,VALID,0,VALID,19.7028,VALID,40,VALID,0.0125,
2014-04-08, 02:53:05,VALID,919.006,VALID,0,VALID,96.3676,VALID,0,VALID,19.7433,VALID,39,VALID,0.0503906,
2014-04-08, 02:54:05,VALID,919.01,VALID,0,VALID,96.3905,VALID,0,VALID,19.7028,VALID,39,VALID,0.0925781,
2014-04-08, 02:55:05,VALID,918.985,VALID,0,VALID,96.3676,VALID,0,VALID,19.6848,VALID,39,VALID,0.159375,
2014-04-08, 02:56:05,VALID,918.95,VALID,0,VALID,96.3829,VALID,0,VALID,19.6458,VALID,39,VALID,0.391406,
2014-04-08, 02:57:05,VALID,918.965,VALID,0,VALID,96.3676,VALID,0,VALID,19.6068,VALID,39,VALID,0.601563,
2014-04-08, 02:58:05,VALID,919.003,VALID,0,VALID,96.3829,VALID,0,VALID,19.5663,VALID,39,VALID,0.268359,
2014-04-08, 02:59:05,VALID,918.977,VALID,0,VALID,96.3752,VALID,0,VALID,19.5858,VALID,39,VALID,0.257031,
2014-04-08, 03:00:05,VALID,918.96,VALID,0,VALID,96.3752,VALID,0,VALID,19.6053,VALID,39,VALID,0,
2014-04-08, 03:01:05,VALID,918.927,VALID,0,VALID,96.3752,VALID,0,VALID,19.6053,VALID,39,VALID,0,
2014-04-08, 03:02:05,VALID,918.907,VALID,0,VALID,96.3905,VALID,0.107441,VALID,19.6248,VALID,39,VALID,0,
2014-04-08, 03:03:05,VALID,918.897,VALID,0,VALID,96.3905,VALID,0,VALID,19.6248,VALID,39,VALID,0.0316406,
2014-04-08, 03:04:05,VALID,918.871,VALID,0,VALID,96.3981,VALID,0.107441,VALID,19.6248,VALID,39,VALID,0,
2014-04-08, 03:05:05,VALID,918.863,VALID,0,VALID,96.3981,VALID,0.107441,VALID,19.6638,VALID,39,VALID,0,
2014-04-08, 03:06:05,VALID,918.828,VALID,0,VALID,96.3981,VALID,0,VALID,19.6443,VALID,39,VALID,0,
2014-04-08, 03:07:05,VALID,918.828,VALID,0,VALID,96.3981,VALID,0.107441,VALID,19.6443,VALID,39,VALID,0,
2014-04-08, 03:08:05,VALID,918.825,VALID,0,VALID,96.4057,VALID,0,VALID,19.6248,VALID,39,VALID,0,
2014-04-08, 03:09:05,VALID,918.816,VALID,0,VALID,96.3981,VALID,0,VALID,19.6443,VALID,39,VALID,0,
2014-04-08, 03:10:05,VALID,918.795,VALID,0,VALID,96.3981,VALID,0,VALID,19.6443,VALID,39,VALID,0,
2014-04-08, 03:11:05,VALID,918.814,VALID,0,VALID,96.4057,VALID,0.107441,VALID,19.6248,VALID,39,VALID,0,
2014-04-08, 03:12:05,VALID,918.787,VALID,0,VALID,96.3905,VALID,0,VALID,19.6248,VALID,39,VALID,0,
2014-04-08, 03:13:05,VALID,918.766,VALID,0,VALID,96.4133,VALID,0.107441,VALID,19.6053,VALID,39,VALID,0,
2014-04-08, 03:14:05,VALID,918.788,VALID,0,VALID,96.421,VALID,0,VALID,19.6263,VALID,39,VALID,0,
2014-04-08, 03:15:05,VALID,918.757,VALID,0,VALID,96.4057,VALID,0,VALID,19.6068,VALID,39,VALID,0.382422,
2014-04-08, 03:16:05,VALID,918.763,VALID,0,VALID,96.4286,VALID,0,VALID,19.5873,VALID,39,VALID,0.244141,
2014-04-08, 03:17:05,VALID,918.698,VALID,0,VALID,96.3981,VALID,0,VALID,19.5483,VALID,39,VALID,0,
2014-04-08, 03:18:05,VALID,918.676,VALID,0,VALID,96.4133,VALID,0,VALID,19.5693,VALID,39,VALID,0,
2014-04-08, 03:19:05,VALID,918.677,VALID,0,VALID,96.4362,VALID,0,VALID,19.5288,VALID,39,VALID,0.109375,
2014-04-08, 03:20:05,VALID,918.695,VALID,0,VALID,96.4286,VALID,0,VALID,19.5093,VALID,39,VALID,0.262891,
2014-04-08, 03:21:05,VALID,918.656,VALID,0,VALID,96.4362,VALID,0,VALID,19.4493,VALID,39,VALID,0.332422,
2014-04-08, 03:22:05,VALID,918.627,VALID,0,VALID,96.4286,VALID,0,VALID,19.4508,VALID,39,VALID,0.295312,
2014-04-08, 03:23:05,VALID,918.623,VALID,0,VALID,96.4362,VALID,0,VALID,19.4313,VALID,39,VALID,0.533203,
2014-04-08, 03:24:05,VALID,918.616,VALID,0,VALID,96.4286,VALID,0,VALID,19.4118,VALID,39,VALID,0.514063,
2014-04-08, 03:25:05,VALID,918.561,VALID,0,VALID,96.4438,VALID,0,VALID,19.3923,VALID,39,VALID,0.59375,
2014-04-08, 03:26:05,VALID,918.557,VALID,0,VALID,96.4362,VALID,0,VALID,19.3713,VALID,40,VALID,0.612109,
2014-04-08, 03:27:05,VALID,918.543,VALID,0,VALID,96.4362,VALID,0,VALID,19.3923,VALID,40,VALID,0.414453,
2014-04-08, 03:28:05,VALID,918.537,VALID,0,VALID,96.4667,VALID,0,VALID,19.3923,VALID,40,VALID,0.460938,
2014-04-08, 03:29:05,VALID,918.531,VALID,0,VALID,96.4591,VALID,0,VALID,19.3713,VALID,58,VALID,0.575,
2014-04-08, 03:30:05,VALID,918.538,VALID,0,VALID,96.4515,VALID,0,VALID,19.3728,VALID,58,VALID,0.527344,
2014-04-08, 03:31:05,VALID,918.514,VALID,0,VALID,96.4515,VALID,0,VALID,19.3728,VALID,58,VALID,0.608203,
2014-04-08, 03:32:05,VALID,918.516,VALID,0,VALID,96.4667,VALID,0,VALID,19.3728,VALID,58,VALID,1.07695,
2014-04-08, 03:33:05,VALID,918.523,VALID,0,VALID,96.4515,VALID,0,VALID,19.3533,VALID,75,VALID,0.960938,
2014-04-08, 03:34:05,VALID,918.473,VALID,0,VALID,96.4591,VALID,0,VALID,19.3338,VALID,76,VALID,0.992969,
2014-04-08, 03:35:05,VALID,918.488,VALID,0,VALID,96.4591,VALID,0,VALID,19.3128,VALID,75,VALID,1.17109,
2014-04-08, 03:36:05,VALID,918.454,VALID,0,VALID,96.4591,VALID,0,VALID,19.3143,VALID,75,VALID,0.892969,
2014-04-08, 03:37:05,VALID,918.47,VALID,0,VALID,96.4667,VALID,0,VALID,19.3143,VALID,66,VALID,1.11641,
2014-04-08, 03:38:05,VALID,918.469,VALID,0,VALID,96.4591,VALID,0,VALID,19.3143,VALID,72,VALID,1.23086,
2014-04-08, 03:39:05,VALID,918.428,VALID,0,VALID,96.4667,VALID,0,VALID,19.2933,VALID,66,VALID,1.27891,
2014-04-08, 03:40:05,VALID,918.438,VALID,0,VALID,96.4591,VALID,0,VALID,19.3143,VALID,64,VALID,0.855078,
2014-04-08, 03:41:05,VALID,918.452,VALID,0,VALID,96.4743,VALID,0,VALID,19.2948,VALID,85,VALID,0.772656,
2014-04-08, 03:42:05,VALID,918.401,VALID,0,VALID,96.4743,VALID,0,VALID,19.3143,VALID,84,VALID,1.22617,
2014-04-08, 03:43:05,VALID,918.42,VALID,0,VALID,96.4743,VALID,0,VALID,19.3143,VALID,101,VALID,0.769531,
2014-04-08, 03:44:05,VALID,918.404,VALID,0,VALID,96.4667,VALID,0,VALID,19.3338,VALID,101,VALID,0.978906,
2014-04-08, 03:45:05,VALID,918.427,VALID,0,VALID,96.4743,VALID,0,VALID,19.3338,VALID,76,VALID,1.05195,
2014-04-08, 03:46:05,VALID,918.394,VALID,0,VALID,96.4819,VALID,0,VALID,19.3143,VALID,81,VALID,1.25117,